Location: Cave
(41.8160°N, 12.9350°E)
Time: 19:12:12
(UTC+01:00)

ISS - Pass Details

Date: 27 February 2019
Orbit: 406 x 411 km, 51.6° (Epoch: 21 March)

Event Time Altitude Azimuth Distance (km) Brightness Sun altitude
Exits shadow 04:45:21 40° 104° (ESE) 613 -2.5 -23.4°
Drops below altitude 10° 04:47:54 10° 65° (ENE) 1,466 0.0 -22.9°
Sets 04:50:02 0° 59° (ENE) 2,330 1.2 -22.5°
